Accueil
METAR-TAF:

METAR-TAF

Aéroports :

Bombay, Inde

latitude: 19-05-53N, longitude: 072-50-02E, altitude: 4 m

Observation

Le bulletin a été fait il y a 9 heures et 26 minutes, à 13:00 UTC
Vent 15 kt de nord
Température 29°C
Humidité 35%
Pression 1010 hPa
Visibilité: 4000 m
fumée

METAR: VAJJ 261300Z 35015KT 4000 FU NSC 29/12 Q1010 NOSIG

Heure: 03:56 (22:26 UTC)


TAF: absent

Observations et prévisions météorologiques de plus de 4000 aéroports (messages METAR et TAF).

Les stations disponibles sont représentées par des disques jaunes et rouges sur la carte.

Passer la souris dessus pour voir le nom de la station.

Cliquer dessus pour voir les observations et prévisions météorologiques.

Pour changer de carte: cliquez sur les boutons verts avec une croix noire pour zoomer, sur le bouton vert avec un tiret pour effectuer un zoom arrière, ou sur les flèches vertes pour les cartes adjacentes.


METAR-TAF: